Regional Weather Roundup
Issued by NWS

Home | Current Version | Previous Version | Graphics & Text | Print | Product List | Glossary On
Versions: 1 2 3 4 5 6 7 8 9 10 11 12 13 14 15 16 17 18 19 20 21 22 23 24 25 26 27 28 29 30 31 32 33 34 35 36 37 38 39 40 41 42 43 44 45 46 47 48 49 50
000
ASUS45 KBOU 250807
RWRCO

WEATHER ROUNDUP FOR COLORADO
NATIONAL WEATHER SERVICE DENVER/BOULDER CO
200 AM MDT SAT APR 25 2015

NOTE: "FAIR" INDICATES FEW OR NO CLOUDS BELOW 12000 FEET WITH NO
SIGNIFICANT WEATHER AND/OR OBSTRUCTIONS TO VISIBILITY.

COZ001>005-013-030-031-250900-
...NORTHWEST COLORADO...

CITY           SKY/WX    TMP DP  RH WIND       PRES   REMARKS
CRAIG          MOCLDY    47  28  47 S12       29.77F
HAYDEN         CLOUDY    41  28  60 E8        29.79F
MEEKER         CLOUDY    46  30  53 W9        29.79S
MOUNT WERNER   NOT AVBL
STEAMBOAT SPGS MOCLDY    37  32  84 CALM      29.81S
WALDEN         CLEAR     32  25  74 SE7       29.83S WCI  26
$$

COZ006>008-011-250900-
...WEST CENTRAL VALLEYS...

CITY           SKY/WX    TMP DP  RH WIND       PRES   REMARKS
GRAND JUNCTION CLOUDY    51  33  50 E14       29.76S
MONTROSE       MOCLDY    38  32  79 E5        29.86R
EAGLE          PTCLDY    34  28  80 CALM      29.87S
RIFLE          PTCLDY    38  31  76 S5        29.81S
DELTA          NOT AVBL
NUCLA          CLOUDY    52  32  46 S16G23    29.88S
$$

COZ017>023-064>068-250900-
...SOUTHWEST COLORADO...

CITY           SKY/WX    TMP DP  RH WIND       PRES   REMARKS
DURANGO        CLOUDY    38  36  92 CALM      29.96R
CORTEZ         CLOUDY    50  35  56 S17       29.91S
PAGOSA SPRINGS CLOUDY    36  33  87 CALM      29.99S
TELLURIDE      PTCLDY    35  26  68 CALM      29.97F
WOLF CREEK PAS NOT AVBL
$$

COZ009-010-012-014-032>034-037-058>063-250900-
...CENTRAL COLORADO...

CITY           SKY/WX    TMP DP  RH WIND       PRES   REMARKS
ASPEN          PTCLDY    30  25  81 SW6       29.87R WCI  24
BUENA VISTA    CLEAR     37  24  59 NW10      29.87S
COPPER MTN     CLEAR     28  18  64 SW13G21   29.97S WCI  18
BERTHOUD PASS  MOCLDY    21  12  68 W33G40    29.93F WCI   2
COTTONWOOD PAS CLEAR     37  21  52 W14G26    29.90S
GUNNISON       PTCLDY    28  23  80 CALM      29.95S
KREMMLING      PTCLDY    36  27  69 E8        29.86S
LEADVILLE      PTCLDY    28  18  66 NE8       29.90F WCI  20
MONARCH PASS   CLOUDY    25  21  86 MISG      30.08F
SALIDA         CLEAR     44  24  44 SW9       29.93S
SUNLIGHT       PTCLDY    30  27  86 CALM      29.96S
WILKERSON PASS MOCLDY    28  18  64 W14G23    29.95S WCI  17
$$

COZ069>075-250900-
...SAN LUIS VALLEY/SANGRE DE CRISTO MOUNTAINS...

CITY           SKY/WX    TMP DP  RH WIND       PRES   REMARKS
ALAMOSA        CLEAR     27  20  75 E7        29.92S WCI  19
LA VETA PASS   PTCLDY    28  23  80 S10G20    29.93R WCI  19
SAGUACHE       CLEAR     32  25  74 NW5       29.92S WCI  27
$$

COZ035-036-038>040-250900-
...NORTHERN COLORADO FRONT RANGE...

CITY           SKY/WX    TMP DP  RH WIND       PRES   REMARKS
DENVER INTL AP CLEAR     41  31  67 S9        29.70F
DMNS CITY PARK   N/A     45  30  55 S7        29.70S
AURORA         NOT AVBL
FRONT RANGE AP NOT AVBL
ERIE MUNI ARPT CLEAR     39  33  79 SW3       29.69S
BOULDER MUN AP CLEAR     45  32  61 W3        29.69S
CENTENNIAL     PTCLDY    42  27  55 SW10      29.72F
BROOMFIELD     CLEAR     46  27  46 W12       29.70F
FORT COLLINS   CLEAR     46  36  66 S6        29.70S
LONGMONT       CLEAR     44  35  70 NW3       29.70F
$$

COZ041-046-047-076>085-087-088-250900-
...PIKES PEAK/PALMER DIVIDE AND SOUTHERN FOOTHILLS...

CITY           SKY/WX    TMP DP  RH WIND       PRES   REMARKS
COLO. SPRINGS  PTCLDY    44  24  45 N8        29.76S
A. F. ACADEMY  PTCLDY    45  21  38 VRB6      29.76F
ELLICOTT       CLEAR    N/A N/A N/A CALM      29.75S
FALCON         CLEAR     43  22  43 NW7       29.78F
FORT CARSON    NOT AVBL
LIMON          PTCLDY    40  34  79 W13       29.71F
MONUMENT HILL  PTCLDY    37  23  56 SW9       29.77S
TRINIDAD       CLEAR     43  23  45 W13       29.77S
$$

COZ042>045-048>051-090-091-250900-
...NORTHEAST COLORADO...

CITY           SKY/WX    TMP DP  RH WIND       PRES   REMARKS
GREELEY ARPT   PTCLDY    46  30  53 CALM      29.69S
AKRON          CLOUDY    48  39  71 W9        29.66S
BURLINGTON     CLOUDY    45  38  76 NW6       29.64S
WRAY           MOCLDY    47  41  80 SW7       29.63S
STERLING       CLOUDY    52  39  62 NW16      29.63R
HOLYOKE        MOCLDY    45  39  81 W5        29.62S
FORT MORGAN    CLOUDY    52  33  48 N17       29.67S
$$

COZ086-089-092>099-250900-
...SOUTHEAST COLORADO...

CITY           SKY/WX    TMP DP  RH WIND       PRES   REMARKS
PUEBLO         CLEAR     45  33  63 CALM      29.72R
LA JUNTA       CLEAR     50  36  58 W14       29.70S
LAMAR          PTCLDY    48  41  76 W12       29.66R
SPRINGFIELD      N/A     46  36  68 W9        29.69S
$$


USA.gov is the U.S. government's official web portal to all federal, state and local government web resources and services.